Time,TemperatureF,DewpointF,PressureIn,WindDirection,WindDirectionDegrees,WindSpeedMPH,WindSpeedGustMPH,Humidity,HourlyPrecipIn,Conditions,Clouds,dailyrainin,SoftwareType,DateUTC
2013-05-04 00:00:00,60.0,54.5,30.00,WNW,286,3.0,3.0,82,0.00,,OVC021,0.00,VWS V14.01,2013-05-04 04:00:00,
2013-05-04 00:01:00,60.0,54.5,30.00,East,101,6.0,9.0,82,0.00,,OVC021,0.00,VWS V14.01,2013-05-04 04:01:00,
2013-05-04 00:06:00,60.0,54.5,30.00,SE,132,0.0,9.0,82,0.00,,OVC021,0.00,VWS V14.01,2013-05-04 04:06:00,
2013-05-04 00:11:00,60.0,54.2,30.00,ENE,77,0.0,11.0,81,0.00,,OVC021,0.00,VWS V14.01,2013-05-04 04:11:00,
2013-05-04 00:16:00,60.0,54.5,30.00,WSW,242,0.0,11.0,82,0.00,,OVC021,0.00,VWS V14.01,2013-05-04 04:16:00,
2013-05-04 00:21:00,59.9,54.4,30.00,North,5,2.0,11.0,82,0.00,,OVC021,0.00,VWS V14.01,2013-05-04 04:21:00,
2013-05-04 00:26:00,59.9,54.4,30.00,WSW,247,3.0,11.0,82,0.00,,OVC021,0.00,VWS V14.01,2013-05-04 04:26:00,
2013-05-04 00:30:00,59.9,54.4,30.00,SSE,157,0.0,11.0,82,0.00,,CLR,0.00,VWS V14.01,2013-05-04 04:30:00,
2013-05-04 00:31:00,59.9,54.4,30.00,NNE,30,0.0,7.0,82,0.00,,OVC021,0.00,VWS V14.01,2013-05-04 04:31:00,
2013-05-04 00:36:00,59.9,54.7,30.00,NNE,28,3.0,7.0,83,0.00,,OVC021,0.00,VWS V14.01,2013-05-04 04:36:00,
2013-05-04 00:41:00,59.9,54.7,30.00,SW,234,0.0,11.0,83,0.00,,OVC042,0.00,VWS V14.01,2013-05-04 04:41:00,
2013-05-04 00:46:00,59.9,54.7,29.99,SE,143,1.0,11.0,83,0.00,,OVC042,0.00,VWS V14.01,2013-05-04 04:46:00,
2013-05-04 00:51:00,59.9,54.7,29.99,ESE,110,9.0,12.0,83,0.00,,OVC042,0.00,VWS V14.01,2013-05-04 04:51:00,
2013-05-04 00:56:00,60.0,54.8,29.99,NE,37,2.0,12.0,83,0.00,,OVC042,0.00,VWS V14.01,2013-05-04 04:56:00,
2013-05-04 01:00:00,60.0,54.8,29.99,South,176,1.0,12.0,83,0.00,,CLR,0.00,VWS V14.01,2013-05-04 05:00:00,
2013-05-04 01:01:00,59.9,54.7,29.99,ENE,65,3.0,9.0,83,0.00,,OVC042,0.00,VWS V14.01,2013-05-04 05:01:00,
2013-05-04 01:06:00,60.0,54.8,29.98,ENE,76,0.0,11.0,83,0.00,,OVC042,0.00,VWS V14.01,2013-05-04 05:06:00,
2013-05-04 01:11:00,59.9,54.7,29.98,SW,229,4.0,11.0,83,0.00,,OVC042,0.00,VWS V14.01,2013-05-04 05:11:00,
2013-05-04 01:16:00,59.9,54.7,29.98,SW,223,3.0,11.0,83,0.00,,OVC042,0.00,VWS V14.01,2013-05-04 05:16:00,
2013-05-04 01:21:00,59.9,55.1,29.98,ENE,76,0.0,11.0,84,0.00,,OVC042,0.00,VWS V14.01,2013-05-04 05:21:00,
2013-05-04 01:26:00,59.9,55.1,29.98,ENE,71,2.0,12.0,84,0.00,,OVC042,0.00,VWS V14.01,2013-05-04 05:26:00,
2013-05-04 01:30:00,59.9,55.1,29.99,SSE,156,0.0,12.0,84,0.00,,CLR,0.00,VWS V14.01,2013-05-04 05:30:00,
2013-05-04 01:31:00,59.9,55.1,29.99,WSW,255,4.0,8.0,84,0.00,,OVC042,0.00,VWS V14.01,2013-05-04 05:31:00,
2013-05-04 01:36:00,59.9,55.1,29.98,NE,34,9.0,11.0,84,0.00,,OVC042,0.00,VWS V14.01,2013-05-04 05:36:00,
2013-05-04 01:41:00,59.9,55.1,29.98,SE,130,2.0,11.0,84,0.00,,OVC039,0.00,VWS V14.01,2013-05-04 05:41:00,
2013-05-04 01:46:00,59.8,55.0,29.97,NNE,32,0.0,11.0,84,0.00,,OVC039,0.00,VWS V14.01,2013-05-04 05:46:00,
2013-05-04 01:51:00,59.6,55.1,29.98,SW,216,1.0,11.0,85,0.00,,OVC039,0.00,VWS V14.01,2013-05-04 05:51:00,
2013-05-04 01:56:00,59.5,55.0,29.97,SW,231,2.0,11.0,85,0.00,,OVC039,0.00,VWS V14.01,2013-05-04 05:56:00,
2013-05-04 02:00:00,59.5,55.0,29.97,SSE,167,2.0,11.0,85,0.00,,CLR,0.00,VWS V14.01,2013-05-04 06:00:00,
2013-05-04 02:01:00,59.5,55.0,29.98,NW,323,0.0,5.0,85,0.00,,OVC039,0.00,VWS V14.01,2013-05-04 06:01:00,
2013-05-04 02:06:00,59.5,55.0,29.97,NNE,23,2.0,8.0,85,0.00,,OVC039,0.00,VWS V14.01,2013-05-04 06:06:00,
2013-05-04 02:11:00,59.4,54.9,29.96,NE,53,0.0,8.0,85,0.00,,OVC039,0.00,VWS V14.01,2013-05-04 06:11:00,
2013-05-04 02:16:00,59.4,54.9,29.96,NE,38,4.0,8.0,85,0.00,,OVC039,0.00,VWS V14.01,2013-05-04 06:16:00,
2013-05-04 02:21:00,59.3,54.8,29.96,East,86,2.0,12.0,85,0.00,,OVC039,0.00,VWS V14.01,2013-05-04 06:21:00,
2013-05-04 02:26:00,59.3,54.8,29.96,ENE,68,0.0,12.0,85,0.00,,OVC039,0.00,VWS V14.01,2013-05-04 06:26:00,
2013-05-04 02:30:00,59.3,54.5,29.95,SW,223,4.0,12.0,84,0.00,,CLR,0.00,VWS V14.01,2013-05-04 06:30:00,
2013-05-04 02:31:00,59.3,54.5,29.95,SW,227,0.0,6.0,84,0.00,,OVC039,0.00,VWS V14.01,2013-05-04 06:31:00,
2013-05-04 02:36:00,59.3,54.5,29.95,SSE,162,2.0,8.0,84,0.00,,OVC039,0.00,VWS V14.01,2013-05-04 06:36:00,
2013-05-04 02:41:00,59.3,54.5,29.95,SSE,160,0.0,10.0,84,0.00,,-RA,0.00,VWS V14.01,2013-05-04 06:41:00,
2013-05-04 02:46:00,59.2,54.4,29.95,SW,230,5.0,10.0,84,0.00,,-RA,0.00,VWS V14.01,2013-05-04 06:46:00,
2013-05-04 02:51:00,59.1,54.3,29.95,SE,141,2.0,11.0,84,0.00,,-RA,0.00,VWS V14.01,2013-05-04 06:51:00,
2013-05-04 02:56:00,59.1,54.3,29.95,SSE,165,3.0,11.0,84,0.00,,-RA,0.00,VWS V14.01,2013-05-04 06:56:00,
2013-05-04 03:00:00,59.1,54.3,29.95,NE,56,3.0,14.0,84,0.00,,CLR,0.00,VWS V14.01,2013-05-04 07:00:00,
2013-05-04 03:01:00,59.1,54.3,29.95,SW,214,1.0,7.0,84,0.00,,-RA,0.00,VWS V14.01,2013-05-04 07:01:00,
2013-05-04 03:06:00,59.0,53.8,29.95,South,189,1.0,16.0,83,0.00,,-RA,0.00,VWS V14.01,2013-05-04 07:06:00,
2013-05-04 03:11:00,59.0,53.8,29.95,SW,225,3.0,16.0,83,0.00,,-RA,0.00,VWS V14.01,2013-05-04 07:11:00,
2013-05-04 03:16:00,59.0,53.8,29.95,NE,36,1.0,16.0,83,0.00,,-RA,0.00,VWS V14.01,2013-05-04 07:16:00,
2013-05-04 03:21:00,59.0,53.5,29.95,SW,236,6.0,16.0,82,0.00,,-RA,0.00,VWS V14.01,2013-05-04 07:21:00,
2013-05-04 03:26:00,58.9,53.4,29.95,SSE,157,1.0,16.0,82,0.00,,-RA,0.00,VWS V14.01,2013-05-04 07:26:00,
2013-05-04 03:30:00,58.9,53.1,29.95,WSW,249,1.0,16.0,81,0.00,,CLR,0.00,VWS V14.01,2013-05-04 07:30:00,
2013-05-04 03:31:00,58.8,53.0,29.95,West,262,4.0,4.0,81,0.00,,-RA,0.00,VWS V14.01,2013-05-04 07:31:00,
2013-05-04 03:36:00,58.7,52.9,29.95,NNE,23,4.0,10.0,81,0.00,,-RA,0.00,VWS V14.01,2013-05-04 07:36:00,
2013-05-04 03:41:00,58.7,52.9,29.94,NNE,25,8.0,10.0,81,0.00,,OVC027,0.00,VWS V14.01,2013-05-04 07:41:00,
2013-05-04 03:46:00,58.6,52.8,29.94,NNE,13,1.0,10.0,81,0.00,,OVC027,0.00,VWS V14.01,2013-05-04 07:46:00,
2013-05-04 03:51:00,58.6,52.8,29.94,SSE,150,1.0,10.0,81,0.00,,OVC027,0.00,VWS V14.01,2013-05-04 07:51:00,
2013-05-04 03:56:00,58.5,52.7,29.94,NNW,337,2.0,10.0,81,0.00,,OVC027,0.00,VWS V14.01,2013-05-04 07:56:00,
2013-05-04 04:00:00,58.5,52.7,29.95,NNE,28,7.0,10.0,81,0.00,,CLR,0.00,VWS V14.01,2013-05-04 08:00:00,
2013-05-04 04:01:00,58.4,52.6,29.95,South,173,3.0,7.0,81,0.00,,OVC027,0.00,VWS V14.01,2013-05-04 08:01:00,
2013-05-04 04:06:00,58.4,52.6,29.95,NE,35,1.0,7.0,81,0.00,,OVC027,0.00,VWS V14.01,2013-05-04 08:06:00,
2013-05-04 04:11:00,58.2,52.1,29.95,SSW,202,0.0,7.0,80,0.00,,OVC027,0.00,VWS V14.01,2013-05-04 08:11:00,
2013-05-04 04:16:00,58.1,52.0,29.95,WSW,251,3.0,7.0,80,0.00,,OVC027,0.00,VWS V14.01,2013-05-04 08:16:00,
2013-05-04 04:21:00,57.8,52.3,29.95,WNW,282,2.0,9.0,82,0.00,,OVC027,0.00,VWS V14.01,2013-05-04 08:21:00,
2013-05-04 04:26:00,57.5,52.1,29.95,ENE,64,2.0,9.0,82,0.00,,OVC027,0.00,VWS V14.01,2013-05-04 08:26:00,
2013-05-04 04:30:00,57.3,52.2,29.95,South,179,1.0,10.0,83,0.00,,CLR,0.00,VWS V14.01,2013-05-04 08:30:00,
2013-05-04 04:31:00,57.2,52.1,29.95,SW,228,1.0,3.0,83,0.00,,OVC027,0.00,VWS V14.01,2013-05-04 08:31:00,
2013-05-04 04:36:00,57.0,51.9,29.95,ENE,67,2.0,4.0,83,0.00,,OVC027,0.00,VWS V14.01,2013-05-04 08:36:00,
2013-05-04 04:41:00,56.9,51.8,29.95,West,260,1.0,4.0,83,0.00,,OVC027,0.00,VWS V14.01,2013-05-04 08:41:00,
2013-05-04 04:46:00,56.7,51.9,29.95,ENE,76,3.0,13.0,84,0.01,,OVC027,0.01,VWS V14.01,2013-05-04 08:46:00,
2013-05-04 04:51:00,56.6,51.8,29.95,WSW,246,2.0,13.0,84,0.01,,-RA,0.01,VWS V14.01,2013-05-04 08:51:00,
2013-05-04 04:56:00,56.4,51.6,29.95,SW,229,4.0,13.0,84,0.01,,-RA,0.01,VWS V14.01,2013-05-04 08:56:00,
2013-05-04 05:00:00,56.3,51.5,29.95,ENE,71,0.0,13.0,84,0.01,,CLR,0.01,VWS V14.01,2013-05-04 09:00:00,
2013-05-04 05:01:00,56.2,51.4,29.95,NNE,14,2.0,2.0,84,0.01,,-RA,0.01,VWS V14.01,2013-05-04 09:01:00,
2013-05-04 05:06:00,56.0,51.6,29.95,SW,223,1.0,8.0,85,0.01,,-RA,0.01,VWS V14.01,2013-05-04 09:06:00,
2013-05-04 05:11:00,55.8,51.7,29.95,SW,234,1.0,8.0,86,0.01,,-RA,0.01,VWS V14.01,2013-05-04 09:11:00,
2013-05-04 05:16:00,55.5,51.7,29.95,South,181,1.0,8.0,87,0.01,,-RA,0.01,VWS V14.01,2013-05-04 09:16:00,
2013-05-04 05:21:00,55.3,52.1,29.96,NE,38,3.0,8.0,89,0.01,,-RA,0.01,VWS V14.01,2013-05-04 09:21:00,
2013-05-04 05:26:00,55.1,51.9,29.96,NE,55,1.0,8.0,89,0.01,,-RA,0.01,VWS V14.01,2013-05-04 09:26:00,
2013-05-04 05:30:00,55.0,52.1,29.96,SSE,151,1.0,9.0,90,0.01,,CLR,0.01,VWS V14.01,2013-05-04 09:30:00,
2013-05-04 05:31:00,54.9,52.0,29.96,West,275,0.0,5.0,90,0.01,,-RA,0.01,VWS V14.01,2013-05-04 09:31:00,
2013-05-04 05:36:00,54.7,52.1,29.96,NE,34,0.0,7.0,91,0.01,,-RA,0.01,VWS V14.01,2013-05-04 09:36:00,
2013-05-04 05:41:00,54.4,51.8,29.96,South,188,0.0,14.0,91,0.01,,-RA,0.01,VWS V14.01,2013-05-04 09:41:00,
2013-05-04 05:46:00,54.2,51.3,29.96,NNE,22,2.0,14.0,90,0.02,,-RA,0.02,VWS V14.01,2013-05-04 09:46:00,
2013-05-04 05:51:00,53.9,51.3,29.96,NE,45,1.0,14.0,91,0.03,,-RA,0.03,VWS V14.01,2013-05-04 09:51:00,
2013-05-04 05:56:00,53.5,50.6,29.96,NNW,342,0.0,15.0,90,0.04,,-RA,0.04,VWS V14.01,2013-05-04 09:56:00,
2013-05-04 06:00:00,53.4,51.1,29.96,West,269,0.0,15.0,92,0.04,,CLR,0.04,VWS V14.01,2013-05-04 10:00:00,
2013-05-04 06:01:00,53.3,50.7,29.96,ENE,71,3.0,3.0,91,0.03,,-RA,0.04,VWS V14.01,2013-05-04 10:01:00,
2013-05-04 06:06:00,53.0,50.5,29.97,South,186,0.0,5.0,91,0.04,,-RA,0.05,VWS V14.01,2013-05-04 10:06:00,
2013-05-04 06:11:00,52.8,50.5,29.97,East,100,0.0,7.0,92,0.05,,-RA,0.06,VWS V14.01,2013-05-04 10:11:00,
2013-05-04 06:16:00,52.6,50.3,29.97,SE,136,0.0,7.0,92,0.06,,-RA,0.07,VWS V14.01,2013-05-04 10:16:00,
2013-05-04 06:21:00,52.4,50.4,29.98,South,179,0.0,7.0,93,0.07,,-RA,0.08,VWS V14.01,2013-05-04 10:21:00,
2013-05-04 06:26:00,52.3,50.3,29.98,South,183,0.0,7.0,93,0.07,,-RA,0.08,VWS V14.01,2013-05-04 10:26:00,
2013-05-04 06:30:00,52.2,50.2,29.98,ENE,62,1.0,7.0,93,0.08,,CLR,0.09,VWS V14.01,2013-05-04 10:30:00,
2013-05-04 06:31:00,52.2,50.2,29.98,SW,228,2.0,3.0,93,0.08,,-RA,0.09,VWS V14.01,2013-05-04 10:31:00,
2013-05-04 06:36:00,52.1,50.4,29.98,NNE,28,2.0,8.0,94,0.08,,-RA,0.09,VWS V14.01,2013-05-04 10:36:00,
2013-05-04 06:41:00,51.9,49.9,29.98,SSE,163,1.0,8.0,93,0.09,,-RA,0.10,VWS V14.01,2013-05-04 10:41:00,
2013-05-04 06:46:00,51.8,49.8,29.98,NNW,344,1.0,8.0,93,0.09,,-RA,0.10,VWS V14.01,2013-05-04 10:46:00,
2013-05-04 06:51:00,51.6,49.4,29.98,SSW,207,5.0,8.0,92,0.09,,-RA,0.10,VWS V14.01,2013-05-04 10:51:00,
2013-05-04 06:56:00,51.4,49.5,29.98,SSW,211,2.0,8.0,93,0.09,,-RA,0.10,VWS V14.01,2013-05-04 10:56:00,
2013-05-04 07:00:00,51.2,49.0,29.99,South,188,0.0,8.0,92,0.09,,CLR,0.10,VWS V14.01,2013-05-04 11:00:00,
2013-05-04 07:01:00,51.1,49.2,29.99,SW,225,1.0,4.0,93,0.06,,-RA,0.10,VWS V14.01,2013-05-04 11:01:00,
2013-05-04 07:06:00,50.8,48.6,29.98,SSW,202,4.0,7.0,92,0.07,,-RA,0.11,VWS V14.01,2013-05-04 11:06:00,
2013-05-04 07:11:00,50.6,48.7,29.98,SE,138,0.0,7.0,93,0.08,,-RA,0.12,VWS V14.01,2013-05-04 11:11:00,
2013-05-04 07:16:00,50.4,48.2,29.98,WNW,300,2.0,8.0,92,0.08,,OVC012,0.12,VWS V14.01,2013-05-04 11:16:00,
2013-05-04 07:21:00,50.2,48.3,29.98,ENE,73,1.0,8.0,93,0.09,,-RA,0.13,VWS V14.01,2013-05-04 11:21:00,
2013-05-04 07:26:00,50.2,48.5,29.98,NNE,12,5.0,8.0,94,0.10,,-RA,0.14,VWS V14.01,2013-05-04 11:26:00,
2013-05-04 07:30:00,50.1,48.4,29.98,NE,55,5.0,8.0,94,0.11,,CLR,0.15,VWS V14.01,2013-05-04 11:30:00,
2013-05-04 07:31:00,50.1,48.4,29.98,North,5,0.0,5.0,94,0.06,,-RA,0.15,VWS V14.01,2013-05-04 11:31:00,
2013-05-04 07:36:00,50.0,48.3,29.98,NNE,26,1.0,5.0,94,0.07,,-RA,0.16,VWS V14.01,2013-05-04 11:36:00,
2013-05-04 07:41:00,50.0,48.3,29.98,WSW,244,0.0,5.0,94,0.07,,RA,0.16,VWS V14.01,2013-05-04 11:41:00,
2013-05-04 07:46:00,50.1,48.4,29.98,SSW,195,1.0,6.0,94,0.08,,RA,0.17,VWS V14.01,2013-05-04 11:46:00,
2013-05-04 07:51:00,50.0,48.3,29.98,East,90,3.0,6.0,94,0.08,,RA,0.17,VWS V14.01,2013-05-04 11:51:00,
2013-05-04 07:56:00,50.0,48.6,29.98,SSW,202,0.0,9.0,95,0.09,,RA,0.18,VWS V14.01,2013-05-04 11:56:00,
2013-05-04 08:00:00,50.0,48.6,29.98,WSW,248,0.0,9.0,95,0.09,,CLR,0.18,VWS V14.01,2013-05-04 12:00:00,
2013-05-04 08:01:00,50.0,48.3,29.98,ENE,69,2.0,6.0,94,0.08,,RA,0.18,VWS V14.01,2013-05-04 12:01:00,
2013-05-04 08:06:00,50.0,48.3,29.98,SSE,150,2.0,14.0,94,0.08,,RA,0.18,VWS V14.01,2013-05-04 12:06:00,
2013-05-04 08:11:00,50.1,48.7,29.98,SW,225,0.0,14.0,95,0.09,,RA,0.19,VWS V14.01,2013-05-04 12:11:00,
2013-05-04 08:16:00,50.1,48.7,29.97,WSW,242,0.0,14.0,95,0.10,,RA,0.20,VWS V14.01,2013-05-04 12:16:00,
2013-05-04 08:21:00,50.1,48.7,29.97,SSW,213,0.0,14.0,95,0.10,,RA,0.20,VWS V14.01,2013-05-04 12:21:00,
2013-05-04 08:26:00,50.2,48.8,29.97,SSW,202,0.0,14.0,95,0.10,,RA,0.20,VWS V14.01,2013-05-04 12:26:00,
2013-05-04 08:30:00,50.2,48.8,29.97,South,172,1.0,14.0,95,0.11,,CLR,0.21,VWS V14.01,2013-05-04 12:30:00,
2013-05-04 08:31:00,50.2,48.8,29.97,SSW,202,0.0,4.0,95,0.06,,RA,0.21,VWS V14.01,2013-05-04 12:31:00,
2013-05-04 08:36:00,50.2,48.8,29.97,East,96,2.0,9.0,95,0.07,,RA,0.22,VWS V14.01,2013-05-04 12:36:00,
2013-05-04 08:41:00,50.2,48.8,29.97,SW,219,3.0,9.0,95,0.09,,RA,0.24,VWS V14.01,2013-05-04 12:41:00,
2013-05-04 08:46:00,50.1,48.4,29.97,SSW,198,2.0,9.0,94,0.12,,RA,0.27,VWS V14.01,2013-05-04 12:46:00,
2013-05-04 08:51:00,50.2,48.8,29.98,NNE,26,5.0,9.0,95,0.13,,RA,0.28,VWS V14.01,2013-05-04 12:51:00,
2013-05-04 08:56:00,50.2,48.8,29.97,East,88,0.0,9.0,95,0.13,,-RA,0.28,VWS V14.01,2013-05-04 12:56:00,
2013-05-04 09:00:00,50.3,48.9,29.97,WSW,244,1.0,9.0,95,0.13,,CLR,0.28,VWS V14.01,2013-05-04 13:00:00,
2013-05-04 09:01:00,50.3,48.9,29.97,SSW,205,5.0,5.0,95,0.11,,-RA,0.29,VWS V14.01,2013-05-04 13:01:00,
2013-05-04 09:03:00,50.4,49.0,29.97,SW,227,4.0,5.0,95,0.11,,-RA,0.29,VWS V14.01,2013-05-04 13:03:00,
2013-05-04 09:08:00,50.4,49.0,29.97,South,184,2.0,10.0,95,0.12,,-RA,0.30,VWS V14.01,2013-05-04 13:08:00,
2013-05-04 09:13:00,50.6,49.2,29.97,SE,129,0.0,10.0,95,0.13,,-RA,0.31,VWS V14.01,2013-05-04 13:13:00,
2013-05-04 09:18:00,50.5,49.1,29.98,East,82,1.0,10.0,95,0.14,,-RA,0.32,VWS V14.01,2013-05-04 13:18:00,
2013-05-04 09:23:00,50.6,49.2,29.98,ENE,71,0.0,10.0,95,0.14,,-RA,0.32,VWS V14.01,2013-05-04 13:23:00,
2013-05-04 09:28:00,50.5,49.1,29.97,SSW,212,4.0,10.0,95,0.15,,-RA,0.33,VWS V14.01,2013-05-04 13:28:00,
2013-05-04 09:30:00,50.5,49.1,29.97,ENE,74,0.0,10.0,95,0.15,,CLR,0.33,VWS V14.01,2013-05-04 13:30:00,
2013-05-04 09:33:00,50.6,49.2,29.97,NE,43,5.0,6.0,95,0.12,,-RA,0.33,VWS V14.01,2013-05-04 13:33:00,
2013-05-04 09:38:00,50.6,48.9,29.97,SSW,207,2.0,8.0,94,0.12,,-RA,0.33,VWS V14.01,2013-05-04 13:38:00,
2013-05-04 09:43:00,50.6,48.9,29.97,WSW,252,2.0,9.0,94,0.12,,-RA,0.33,VWS V14.01,2013-05-04 13:43:00,
2013-05-04 09:48:00,50.7,49.3,29.97,ENE,60,0.0,9.0,95,0.12,,-RA,0.33,VWS V14.01,2013-05-04 13:48:00,
2013-05-04 09:53:00,50.8,49.4,29.97,WNW,284,2.0,9.0,95,0.13,,-RA,0.34,VWS V14.01,2013-05-04 13:53:00,
2013-05-04 09:58:00,50.8,49.4,29.97,ESE,105,1.0,9.0,95,0.13,,-RA,0.34,VWS V14.01,2013-05-04 13:58:00,
2013-05-04 10:00:00,50.7,49.0,29.97,East,88,1.0,9.0,94,0.13,,CLR,0.34,VWS V14.01,2013-05-04 14:00:00,
2013-05-04 10:03:00,50.8,49.4,29.97,NNE,13,2.0,5.0,95,0.06,,-RA,0.34,VWS V14.01,2013-05-04 14:03:00,
2013-05-04 10:08:00,50.7,49.0,29.97,ENE,61,0.0,9.0,94,0.06,,-RA,0.34,VWS V14.01,2013-05-04 14:08:00,
2013-05-04 10:13:00,50.8,49.4,29.97,South,184,1.0,9.0,95,0.06,,-RA,0.34,VWS V14.01,2013-05-04 14:13:00,
2013-05-04 10:18:00,50.8,49.4,29.97,SSW,210,0.0,9.0,95,0.06,,-RA,0.34,VWS V14.01,2013-05-04 14:18:00,
2013-05-04 10:23:00,50.7,49.3,29.97,SSW,202,1.0,9.0,95,0.07,,-RA,0.35,VWS V14.01,2013-05-04 14:23:00,
2013-05-04 10:28:00,50.7,49.3,29.97,SW,222,2.0,9.0,95,0.07,,-RA,0.35,VWS V14.01,2013-05-04 14:28:00,
2013-05-04 10:30:00,50.8,49.4,29.97,East,96,0.0,9.0,95,0.07,,CLR,0.35,VWS V14.01,2013-05-04 14:30:00,
2013-05-04 10:33:00,50.8,49.4,29.96,SSW,201,4.0,7.0,95,0.02,,-RA,0.35,VWS V14.01,2013-05-04 14:33:00,
2013-05-04 10:38:00,51.0,49.6,29.96,NE,54,0.0,7.0,95,0.03,,-RA,0.36,VWS V14.01,2013-05-04 14:38:00,
2013-05-04 10:43:00,51.2,49.8,29.96,SW,221,3.0,7.0,95,0.04,,-RA,0.37,VWS V14.01,2013-05-04 14:43:00,
2013-05-04 10:48:00,51.4,50.0,29.96,ENE,70,0.0,7.0,95,0.04,,-RA,0.37,VWS V14.01,2013-05-04 14:48:00,
2013-05-04 10:53:00,51.5,50.1,29.96,West,264,4.0,7.0,95,0.04,,-RA,0.37,VWS V14.01,2013-05-04 14:53:00,
2013-05-04 10:58:00,51.7,50.3,29.96,West,263,0.0,9.0,95,0.05,,-RA,0.38,VWS V14.01,2013-05-04 14:58:00,
2013-05-04 11:00:00,51.7,50.3,29.96,West,265,0.0,9.0,95,0.05,,CLR,0.38,VWS V14.01,2013-05-04 15:00:00,
2013-05-04 11:03:00,51.8,50.4,29.96,SW,234,1.0,6.0,95,0.04,,-RA,0.38,VWS V14.01,2013-05-04 15:03:00,
2013-05-04 11:08:00,51.7,50.3,29.96,South,186,4.0,6.0,95,0.04,,-RA,0.38,VWS V14.01,2013-05-04 15:08:00,
2013-05-04 11:13:00,51.5,50.1,29.96,WNW,292,5.0,7.0,95,0.04,,-RA,0.38,VWS V14.01,2013-05-04 15:13:00,
2013-05-04 11:18:00,51.5,50.1,29.96,East,86,2.0,7.0,95,0.04,,-RA,0.38,VWS V14.01,2013-05-04 15:18:00,
2013-05-04 11:23:00,51.4,50.0,29.96,ENE,61,5.0,10.0,95,0.04,,-RA,0.38,VWS V14.01,2013-05-04 15:23:00,
2013-05-04 11:28:00,51.3,49.9,29.97,NNE,13,0.0,10.0,95,0.04,,-RA,0.38,VWS V14.01,2013-05-04 15:28:00,
2013-05-04 11:30:00,51.3,49.9,29.97,NNE,13,0.0,10.0,95,0.04,,CLR,0.38,VWS V14.01,2013-05-04 15:30:00,
2013-05-04 11:33:00,51.4,50.0,29.96,ENE,66,5.0,5.0,95,0.03,,-RA,0.38,VWS V14.01,2013-05-04 15:33:00,
2013-05-04 11:38:00,51.4,50.0,29.97,ENE,67,0.0,8.0,95,0.04,,-RA,0.39,VWS V14.01,2013-05-04 15:38:00,
2013-05-04 11:43:00,51.3,49.9,29.97,SW,236,0.0,8.0,95,0.04,,-RA,0.39,VWS V14.01,2013-05-04 15:43:00,
2013-05-04 11:48:00,51.2,49.8,29.96,NE,46,0.0,8.0,95,0.04,,-RA,0.39,VWS V14.01,2013-05-04 15:48:00,
2013-05-04 11:53:00,51.3,49.9,29.96,SW,228,2.0,9.0,95,0.04,,-RA,0.39,VWS V14.01,2013-05-04 15:53:00,
2013-05-04 11:58:00,51.3,49.9,29.96,East,100,1.0,9.0,95,0.04,,-RA,0.39,VWS V14.01,2013-05-04 15:58:00,
2013-05-04 12:00:00,51.3,49.9,29.96,NNW,338,4.0,11.0,95,0.04,,CLR,0.39,VWS V14.01,2013-05-04 16:00:00,
2013-05-04 12:03:00,51.4,50.0,29.96,ENE,67,3.0,4.0,95,0.02,,-RA,0.40,VWS V14.01,2013-05-04 16:03:00,
2013-05-04 12:08:00,51.5,50.1,29.95,North,360,2.0,7.0,95,0.02,,-RA,0.40,VWS V14.01,2013-05-04 16:08:00,
2013-05-04 12:13:00,51.7,50.3,29.95,North,5,1.0,9.0,95,0.03,,-RA,0.41,VWS V14.01,2013-05-04 16:13:00,
2013-05-04 12:18:00,51.9,50.5,29.95,SSW,193,0.0,9.0,95,0.03,,-RA,0.41,VWS V14.01,2013-05-04 16:18:00,
2013-05-04 12:23:00,51.9,50.5,29.95,NE,51,3.0,10.0,95,0.04,,-RA,0.42,VWS V14.01,2013-05-04 16:23:00,
2013-05-04 12:28:00,52.1,51.0,29.95,NNE,30,3.0,10.0,96,0.05,,-RA,0.43,VWS V14.01,2013-05-04 16:28:00,
2013-05-04 12:30:00,52.1,50.7,29.95,SSE,155,4.0,10.0,95,0.05,,CLR,0.43,VWS V14.01,2013-05-04 16:30:00,
2013-05-04 12:33:00,52.0,50.6,29.96,East,94,3.0,12.0,95,0.06,,-RA,0.44,VWS V14.01,2013-05-04 16:33:00,
2013-05-04 12:38:00,52.1,50.7,29.95,NW,321,5.0,12.0,95,0.06,,-RA,0.44,VWS V14.01,2013-05-04 16:38:00,
2013-05-04 12:43:00,52.3,50.9,29.94,NW,316,3.0,12.0,95,0.06,,-RA,0.44,VWS V14.01,2013-05-04 16:43:00,
2013-05-04 12:48:00,52.5,51.1,29.94,East,93,3.0,12.0,95,0.07,,-RA,0.45,VWS V14.01,2013-05-04 16:48:00,
2013-05-04 12:53:00,52.7,51.3,29.93,NNW,330,0.0,12.0,95,0.07,,-RA,0.45,VWS V14.01,2013-05-04 16:53:00,
2013-05-04 12:58:00,52.7,51.3,29.93,North,5,7.0,12.0,95,0.08,,-RA,0.46,VWS V14.01,2013-05-04 16:58:00,
2013-05-04 13:00:00,52.8,51.4,29.93,South,186,0.0,12.0,95,0.08,,CLR,0.46,VWS V14.01,2013-05-04 17:00:00,
2013-05-04 13:03:00,52.9,51.5,29.93,SE,140,2.0,8.0,95,0.07,,-RA,0.46,VWS V14.01,2013-05-04 17:03:00,
2013-05-04 13:08:00,52.8,51.4,29.93,WSW,244,5.0,8.0,95,0.07,,-RA,0.46,VWS V14.01,2013-05-04 17:08:00,
2013-05-04 13:13:00,52.8,51.4,29.93,NNE,24,1.0,8.0,95,0.07,,-RA,0.46,VWS V14.01,2013-05-04 17:13:00,
2013-05-04 13:18:00,53.0,51.6,29.93,SSE,153,0.0,8.0,95,0.07,,-RA,0.46,VWS V14.01,2013-05-04 17:18:00,
2013-05-04 13:23:00,53.1,51.7,29.92,WSW,254,4.0,8.0,95,0.08,,-RA,0.47,VWS V14.01,2013-05-04 17:23:00,
2013-05-04 13:28:00,53.2,51.8,29.92,NE,35,2.0,10.0,95,0.08,,-RA,0.47,VWS V14.01,2013-05-04 17:28:00,
2013-05-04 13:30:00,53.2,51.8,29.92,NNE,15,0.0,10.0,95,0.08,,CLR,0.47,VWS V14.01,2013-05-04 17:30:00,
2013-05-04 13:33:00,53.3,51.9,29.92,NE,37,0.0,6.0,95,0.04,,-RA,0.47,VWS V14.01,2013-05-04 17:33:00,
2013-05-04 13:38:00,53.2,51.8,29.92,SSE,148,0.0,6.0,95,0.05,,-RA,0.48,VWS V14.01,2013-05-04 17:38:00,
2013-05-04 13:43:00,53.3,51.9,29.92,NNW,329,3.0,8.0,95,0.05,,-RA,0.48,VWS V14.01,2013-05-04 17:43:00,
2013-05-04 13:48:00,53.2,51.8,29.91,North,355,6.0,9.0,95,0.07,,-RA,0.50,VWS V14.01,2013-05-04 17:48:00,
2013-05-04 13:53:00,53.2,51.8,29.91,SW,234,4.0,9.0,95,0.08,,-RA,0.51,VWS V14.01,2013-05-04 17:53:00,
2013-05-04 13:58:00,53.2,51.8,29.91,North,360,2.0,9.0,95,0.09,,-RA,0.52,VWS V14.01,2013-05-04 17:58:00,
2013-05-04 14:00:00,53.2,51.8,29.91,ENE,77,3.0,9.0,95,0.09,,CLR,0.52,VWS V14.01,2013-05-04 18:00:00,
2013-05-04 14:03:00,53.1,51.7,29.92,WSW,254,1.0,7.0,95,0.07,,-RA,0.53,VWS V14.01,2013-05-04 18:03:00,
2013-05-04 14:08:00,53.0,51.3,29.92,NE,42,2.0,8.0,94,0.07,,-RA,0.53,VWS V14.01,2013-05-04 18:08:00,
2013-05-04 14:13:00,53.0,51.6,29.92,West,262,5.0,8.0,95,0.08,,-RA,0.54,VWS V14.01,2013-05-04 18:13:00,
2013-05-04 14:18:00,53.0,51.6,29.92,West,281,4.0,8.0,95,0.08,,-RA,0.54,VWS V14.01,2013-05-04 18:18:00,
2013-05-04 14:23:00,53.0,51.6,29.92,WNW,293,1.0,8.0,95,0.08,,-RA,0.54,VWS V14.01,2013-05-04 18:23:00,
2013-05-04 14:28:00,53.0,51.6,29.92,East,96,0.0,8.0,95,0.08,,-RA,0.54,VWS V14.01,2013-05-04 18:28:00,
2013-05-04 14:30:00,53.0,51.6,29.91,NNW,328,1.0,8.0,95,0.08,,CLR,0.54,VWS V14.01,2013-05-04 18:30:00,
2013-05-04 14:33:00,53.1,51.7,29.91,NNE,24,3.0,11.0,95,0.07,,-RA,0.54,VWS V14.01,2013-05-04 18:33:00,
2013-05-04 14:38:00,53.1,51.7,29.92,NE,46,0.0,11.0,95,0.07,,-RA,0.54,VWS V14.01,2013-05-04 18:38:00,
2013-05-04 14:43:00,53.1,51.7,29.91,NE,37,1.0,11.0,95,0.08,,-RA,0.55,VWS V14.01,2013-05-04 18:43:00,
2013-05-04 14:48:00,53.1,51.7,29.92,NE,43,0.0,11.0,95,0.08,,-RA,0.55,VWS V14.01,2013-05-04 18:48:00,
2013-05-04 14:53:00,53.1,51.7,29.93,SW,236,0.0,11.0,95,0.08,,-RA,0.55,VWS V14.01,2013-05-04 18:53:00,
2013-05-04 14:58:00,53.1,51.7,29.95,SW,214,0.0,11.0,95,0.09,,-RA,0.56,VWS V14.01,2013-05-04 18:58:00,
2013-05-04 15:00:00,53.1,51.7,29.95,West,263,2.0,11.0,95,0.09,,CLR,0.56,VWS V14.01,2013-05-04 19:00:00,
2013-05-04 15:03:00,53.1,51.7,29.95,West,263,0.0,2.0,95,0.04,,-RA,0.56,VWS V14.01,2013-05-04 19:03:00,
2013-05-04 15:08:00,53.1,51.7,29.93,WSW,258,0.0,4.0,95,0.07,,-RA,0.59,VWS V14.01,2013-05-04 19:08:00,
2013-05-04 15:13:00,53.2,51.8,29.93,North,5,0.0,4.0,95,0.08,,-RA,0.60,VWS V14.01,2013-05-04 19:13:00,
2013-05-04 15:18:00,53.2,51.8,29.93,NNE,12,0.0,4.0,95,0.10,,-RA,0.62,VWS V14.01,2013-05-04 19:18:00,
2013-05-04 15:23:00,53.3,51.9,29.93,NE,40,0.0,4.0,95,0.11,,-RA,0.63,VWS V14.01,2013-05-04 19:23:00,
2013-05-04 15:28:00,53.3,52.2,29.92,West,276,0.0,4.0,96,0.12,,-RA,0.64,VWS V14.01,2013-05-04 19:28:00,
2013-05-04 15:30:00,53.3,51.9,29.92,West,276,0.0,4.0,95,0.12,,CLR,0.64,VWS V14.01,2013-05-04 19:30:00,
2013-05-04 15:33:00,53.2,51.8,29.92,NNE,26,0.0,4.0,95,0.10,,-RA,0.64,VWS V14.01,2013-05-04 19:33:00,
2013-05-04 15:38:00,53.2,51.8,29.92,WNW,292,2.0,4.0,95,0.13,,-RA,0.67,VWS V14.01,2013-05-04 19:38:00,
2013-05-04 15:43:00,53.1,51.7,29.92,North,360,0.0,4.0,95,0.15,,-RA,0.69,VWS V14.01,2013-05-04 19:43:00,
2013-05-04 15:48:00,53.0,51.9,29.92,NE,51,0.0,4.0,96,0.16,,-RA,0.70,VWS V14.01,2013-05-04 19:48:00,
2013-05-04 15:53:00,53.1,52.0,29.92,NE,51,0.0,4.0,96,0.18,,RA,0.72,VWS V14.01,2013-05-04 19:53:00,
2013-05-04 15:58:00,53.1,52.0,29.90,NE,51,0.0,4.0,96,0.20,,RA,0.74,VWS V14.01,2013-05-04 19:58:00,
2013-05-04 16:00:00,53.1,52.0,29.90,NE,51,0.0,4.0,96,0.20,,CLR,0.74,VWS V14.01,2013-05-04 20:00:00,
2013-05-04 16:03:00,53.1,52.0,29.90,SSW,202,0.0,3.0,96,0.20,,RA,0.76,VWS V14.01,2013-05-04 20:03:00,
2013-05-04 16:08:00,53.1,52.0,29.91,SSW,202,0.0,3.0,96,0.24,,RA,0.80,VWS V14.01,2013-05-04 20:08:00,
2013-05-04 16:13:00,53.3,52.2,29.92,SSW,202,1.0,3.0,96,0.27,,RA,0.83,VWS V14.01,2013-05-04 20:13:00,
2013-05-04 16:18:00,53.1,52.0,29.94,WSW,242,0.0,3.0,96,0.29,,RA,0.85,VWS V14.01,2013-05-04 20:18:00,
2013-05-04 16:23:00,53.0,51.9,29.95,West,259,0.0,4.0,96,0.33,,RA,0.89,VWS V14.01,2013-05-04 20:23:00,
2013-05-04 16:28:00,53.0,51.9,29.93,NNE,25,0.0,4.0,96,0.38,,RA,0.94,VWS V14.01,2013-05-04 20:28:00,
2013-05-04 16:30:00,53.0,51.9,29.93,NNE,25,0.0,4.0,96,0.38,,CLR,0.94,VWS V14.01,2013-05-04 20:30:00,
2013-05-04 16:33:00,53.0,51.9,29.91,NNE,24,0.0,2.0,96,0.33,,RA,0.97,VWS V14.01,2013-05-04 20:33:00,
2013-05-04 16:38:00,53.0,51.9,29.92,WSW,248,0.0,3.0,96,0.36,,RA,1.00,VWS V14.01,2013-05-04 20:38:00,
2013-05-04 16:43:00,52.9,51.8,29.96,WSW,242,0.0,3.0,96,0.37,, +RA,1.01,VWS V14.01,2013-05-04 20:43:00,
2013-05-04 16:48:00,52.9,51.8,29.94,NNE,16,0.0,3.0,96,0.41,, +RA,1.05,VWS V14.01,2013-05-04 20:48:00,
2013-05-04 16:53:00,53.0,52.2,29.93,NNE,16,0.0,3.0,97,0.44,,RA,1.08,VWS V14.01,2013-05-04 20:53:00,
2013-05-04 16:58:00,53.4,52.6,29.93,NNE,16,0.0,3.0,97,0.47,,RA,1.11,VWS V14.01,2013-05-04 20:58:00,
2013-05-04 17:00:00,53.4,52.6,29.93,NNE,16,0.0,3.0,97,0.48,,CLR,1.12,VWS V14.01,2013-05-04 21:00:00,
2013-05-04 17:03:00,53.5,52.7,29.94,NNW,329,0.0,1.0,97,0.39,,RA,1.13,VWS V14.01,2013-05-04 21:03:00,
2013-05-04 17:08:00,53.6,52.8,29.95,NNW,329,0.0,1.0,97,0.39,,RA,1.13,VWS V14.01,2013-05-04 21:08:00,
2013-05-04 17:13:00,53.6,52.8,29.92,North,355,0.0,1.0,97,0.41,,RA,1.15,VWS V14.01,2013-05-04 21:13:00,
2013-05-04 17:18:00,53.7,52.9,29.93,North,355,0.0,1.0,97,0.43,,RA,1.17,VWS V14.01,2013-05-04 21:18:00,
2013-05-04 17:23:00,53.7,52.9,29.93,North,355,0.0,1.0,97,0.45,,RA,1.19,VWS V14.01,2013-05-04 21:23:00,
2013-05-04 17:28:00,53.7,52.9,29.94,North,355,0.0,1.0,97,0.45,,RA,1.19,VWS V14.01,2013-05-04 21:28:00,
2013-05-04 17:30:00,53.7,52.9,29.93,North,355,0.0,1.0,97,0.45,,CLR,1.19,VWS V14.01,2013-05-04 21:30:00,
2013-05-04 17:33:00,53.9,53.1,29.92,North,355,0.0,0.0,97,0.25,,RA,1.19,VWS V14.01,2013-05-04 21:33:00,
2013-05-04 17:38:00,54.1,53.3,29.93,NNE,13,0.0,1.0,97,0.26,,RA,1.20,VWS V14.01,2013-05-04 21:38:00,
2013-05-04 17:43:00,54.1,53.3,29.92,NNE,26,0.0,3.0,97,0.27,,-RA,1.21,VWS V14.01,2013-05-04 21:43:00,
2013-05-04 17:48:00,54.1,53.3,29.92,NNE,26,0.0,3.0,97,0.27,,-RA,1.21,VWS V14.01,2013-05-04 21:48:00,
2013-05-04 17:53:00,54.3,53.5,29.92,NNE,28,0.0,3.0,97,0.27,,-RA,1.21,VWS V14.01,2013-05-04 21:53:00,
2013-05-04 17:58:00,54.3,53.5,29.91,ENE,74,0.0,3.0,97,0.27,,-RA,1.21,VWS V14.01,2013-05-04 21:58:00,
2013-05-04 18:00:00,54.3,53.5,29.91,ENE,74,0.0,3.0,97,0.27,,CLR,1.21,VWS V14.01,2013-05-04 22:00:00,
2013-05-04 18:03:00,54.4,53.6,29.91,ENE,64,0.0,2.0,97,0.10,,-RA,1.22,VWS V14.01,2013-05-04 22:03:00,
2013-05-04 18:08:00,54.2,53.1,29.92,East,86,0.0,5.0,96,0.10,,-RA,1.22,VWS V14.01,2013-05-04 22:08:00,
2013-05-04 18:13:00,54.2,53.1,29.92,ENE,57,0.0,5.0,96,0.11,,-RA,1.23,VWS V14.01,2013-05-04 22:13:00,
2013-05-04 18:18:00,54.1,53.0,29.93,NNE,32,0.0,5.0,96,0.12,,-RA,1.24,VWS V14.01,2013-05-04 22:18:00,
2013-05-04 18:23:00,54.0,52.9,29.94,NNE,32,0.0,5.0,96,0.13,,-RA,1.25,VWS V14.01,2013-05-04 22:23:00,
2013-05-04 18:28:00,54.0,52.9,29.92,NNE,17,2.0,5.0,96,0.15,,-RA,1.27,VWS V14.01,2013-05-04 22:28:00,
2013-05-04 18:30:00,53.9,52.8,29.92,NNE,17,0.0,5.0,96,0.16,,CLR,1.28,VWS V14.01,2013-05-04 22:30:00,
2013-05-04 18:33:00,53.9,52.8,29.92,ENE,71,0.0,0.0,96,0.10,,-RA,1.29,VWS V14.01,2013-05-04 22:33:00,
2013-05-04 18:38:00,54.1,53.0,29.92,ENE,74,0.0,1.0,96,0.11,,-RA,1.30,VWS V14.01,2013-05-04 22:38:00,
2013-05-04 18:43:00,54.1,53.0,29.92,ENE,76,0.0,1.0,96,0.12,,-RA,1.31,VWS V14.01,2013-05-04 22:43:00,
2013-05-04 18:48:00,54.0,52.9,29.91,NNE,23,0.0,6.0,96,0.13,,-RA,1.32,VWS V14.01,2013-05-04 22:48:00,
2013-05-04 18:53:00,53.9,52.8,29.91,ENE,77,0.0,6.0,96,0.13,,-RA,1.32,VWS V14.01,2013-05-04 22:53:00,
2013-05-04 18:58:00,53.9,52.8,29.90,North,5,0.0,7.0,96,0.13,,-RA,1.32,VWS V14.01,2013-05-04 22:58:00,
2013-05-04 19:00:00,53.9,52.8,29.90,ESE,104,1.0,7.0,96,0.13,,CLR,1.32,VWS V14.01,2013-05-04 23:00:00,
2013-05-04 19:03:00,53.9,52.8,29.90,North,355,0.0,4.0,96,0.11,,-RA,1.32,VWS V14.01,2013-05-04 23:03:00,
2013-05-04 19:08:00,53.9,52.8,29.90,SSW,202,0.0,4.0,96,0.11,,-RA,1.32,VWS V14.01,2013-05-04 23:08:00,
2013-05-04 19:13:00,53.8,52.7,29.90,SW,232,0.0,4.0,96,0.12,,-RA,1.33,VWS V14.01,2013-05-04 23:13:00,
2013-05-04 19:18:00,53.7,52.6,29.90,SSW,212,1.0,7.0,96,0.12,,-RA,1.33,VWS V14.01,2013-05-04 23:18:00,
2013-05-04 19:23:00,53.7,52.6,29.91,NE,53,0.0,7.0,96,0.12,,-RA,1.33,VWS V14.01,2013-05-04 23:23:00,
2013-05-04 19:28:00,53.8,52.7,29.91,North,360,2.0,7.0,96,0.14,,-RA,1.35,VWS V14.01,2013-05-04 23:28:00,
2013-05-04 19:30:00,53.8,52.7,29.90,North,360,0.0,7.0,96,0.14,,CLR,1.35,VWS V14.01,2013-05-04 23:30:00,
2013-05-04 19:33:00,53.7,52.6,29.91,ENE,71,0.0,5.0,96,0.08,,-RA,1.36,VWS V14.01,2013-05-04 23:33:00,
2013-05-04 19:38:00,53.7,52.6,29.91,South,178,1.0,5.0,96,0.10,,-RA,1.38,VWS V14.01,2013-05-04 23:38:00,
2013-05-04 19:43:00,53.6,52.5,29.90,NNE,14,3.0,5.0,96,0.12,,-RA,1.40,VWS V14.01,2013-05-04 23:43:00,
2013-05-04 19:48:00,53.6,52.5,29.90,SW,227,0.0,5.0,96,0.13,,-RA,1.41,VWS V14.01,2013-05-04 23:48:00,
2013-05-04 19:53:00,53.5,52.4,29.90,ENE,78,0.0,5.0,96,0.14,,-RA,1.42,VWS V14.01,2013-05-04 23:53:00,
2013-05-04 19:58:00,53.5,52.4,29.90,NNW,336,0.0,5.0,96,0.15,,RA,1.43,VWS V14.01,2013-05-04 23:58:00,
2013-05-04 20:00:00,53.5,52.4,29.90,NE,45,0.0,5.0,96,0.15,,CLR,1.43,VWS V14.01,2013-05-05 00:00:00,
2013-05-04 20:03:00,53.5,52.4,29.90,ENE,76,1.0,1.0,96,0.12,,RA,1.44,VWS V14.01,2013-05-05 00:03:00,
2013-05-04 20:08:00,53.5,52.4,29.90,ENE,67,0.0,4.0,96,0.13,,RA,1.45,VWS V14.01,2013-05-05 00:08:00,
2013-05-04 20:13:00,53.5,52.4,29.91,ESE,107,0.0,4.0,96,0.14,,RA,1.46,VWS V14.01,2013-05-05 00:13:00,
2013-05-04 20:18:00,53.5,52.4,29.90,ENE,65,0.0,4.0,96,0.15,,RA,1.47,VWS V14.01,2013-05-05 00:18:00,
2013-05-04 20:23:00,53.5,52.4,29.90,SW,229,0.0,4.0,96,0.16,,-RA,1.48,VWS V14.01,2013-05-05 00:23:00,
2013-05-04 20:28:00,53.5,52.4,29.90,WSW,240,0.0,4.0,96,0.18,,-RA,1.50,VWS V14.01,2013-05-05 00:28:00,
2013-05-04 20:30:00,53.5,52.4,29.89,WSW,240,0.0,4.0,96,0.18,,CLR,1.50,VWS V14.01,2013-05-05 00:30:00,
2013-05-04 20:32:00,53.5,52.4,29.89,NNE,21,1.0,5.0,96,0.17,,-RA,1.52,VWS V14.01,2013-05-05 00:32:00,
2013-05-04 20:37:00,53.5,52.4,29.89,SE,138,1.0,5.0,96,0.18,,-RA,1.53,VWS V14.01,2013-05-05 00:37:00,
2013-05-04 20:42:00,53.5,52.4,29.89,South,191,2.0,8.0,96,0.19,, +RA,1.54,VWS V14.01,2013-05-05 00:42:00,
2013-05-04 20:47:00,53.4,52.3,29.89,ENE,57,0.0,8.0,96,0.20,, +RA,1.55,VWS V14.01,2013-05-05 00:47:00,
2013-05-04 20:52:00,53.5,52.4,29.89,SE,146,2.0,8.0,96,0.21,,RA,1.56,VWS V14.01,2013-05-05 00:52:00,
2013-05-04 20:57:00,53.5,52.7,29.89,NW,310,0.0,8.0,97,0.22,,RA,1.57,VWS V14.01,2013-05-05 00:57:00,
2013-05-04 21:00:00,53.5,52.7,29.89,NE,40,0.0,8.0,97,0.23,,CLR,1.58,VWS V14.01,2013-05-05 01:00:00,
2013-05-04 21:02:00,53.5,52.7,29.89,NE,41,1.0,2.0,97,0.16,,RA,1.59,VWS V14.01,2013-05-05 01:02:00,
2013-05-04 21:07:00,53.4,52.3,29.89,NE,41,1.0,5.0,96,0.17,,RA,1.60,VWS V14.01,2013-05-05 01:07:00,
2013-05-04 21:12:00,53.4,52.3,29.89,ENE,73,0.0,5.0,96,0.17,,RA,1.60,VWS V14.01,2013-05-05 01:12:00,
2013-05-04 21:17:00,53.4,52.3,29.90,SSW,211,4.0,5.0,96,0.17,,RA,1.60,VWS V14.01,2013-05-05 01:17:00,
2013-05-04 21:22:00,53.4,52.3,29.90,ENE,62,0.0,5.0,96,0.19,,RA,1.62,VWS V14.01,2013-05-05 01:22:00,
2013-05-04 21:27:00,53.4,52.3,29.90,East,88,0.0,5.0,96,0.21,,RA,1.64,VWS V14.01,2013-05-05 01:27:00,
2013-05-04 21:30:00,53.4,52.3,29.91,WSW,246,0.0,5.0,96,0.21,,CLR,1.64,VWS V14.01,2013-05-05 01:30:00,
2013-05-04 21:32:00,53.5,52.4,29.90,WNW,292,0.0,4.0,96,0.15,,RA,1.65,VWS V14.01,2013-05-05 01:32:00,
2013-05-04 21:37:00,53.5,52.4,29.90,North,11,2.0,4.0,96,0.15,,RA,1.65,VWS V14.01,2013-05-05 01:37:00,
2013-05-04 21:42:00,53.6,52.5,29.90,South,190,3.0,4.0,96,0.17,,RA,1.67,VWS V14.01,2013-05-05 01:42:00,
2013-05-04 21:47:00,53.5,52.4,29.90,SSW,194,0.0,5.0,96,0.17,,RA,1.67,VWS V14.01,2013-05-05 01:47:00,
2013-05-04 21:52:00,53.5,52.4,29.90,SW,221,2.0,5.0,96,0.19,,RA,1.69,VWS V14.01,2013-05-05 01:52:00,
2013-05-04 21:57:00,53.6,52.5,29.90,WNW,283,2.0,5.0,96,0.19,,RA,1.69,VWS V14.01,2013-05-05 01:57:00,
2013-05-04 22:00:00,53.6,52.5,29.90,North,11,0.0,5.0,96,0.20,,CLR,1.70,VWS V14.01,2013-05-05 02:00:00,
2013-05-04 22:02:00,53.7,52.9,29.90,ENE,66,0.0,6.0,97,0.13,,-RA,1.71,VWS V14.01,2013-05-05 02:02:00,
2013-05-04 22:07:00,53.7,52.9,29.90,NNW,348,0.0,6.0,97,0.13,,-RA,1.71,VWS V14.01,2013-05-05 02:07:00,
2013-05-04 22:12:00,53.8,53.0,29.90,NNE,14,0.0,6.0,97,0.14,,-RA,1.72,VWS V14.01,2013-05-05 02:12:00,
2013-05-04 22:17:00,53.9,53.1,29.90,NNW,331,0.0,6.0,97,0.14,,-RA,1.72,VWS V14.01,2013-05-05 02:17:00,
2013-05-04 22:22:00,54.0,53.2,29.90,NNE,33,0.0,6.0,97,0.15,,-RA,1.73,VWS V14.01,2013-05-05 02:22:00,
2013-05-04 22:27:00,54.0,53.2,29.90,North,9,2.0,6.0,97,0.17,,-RA,1.75,VWS V14.01,2013-05-05 02:27:00,
2013-05-04 22:30:00,54.0,53.2,29.90,NNE,30,3.0,6.0,97,0.18,,CLR,1.76,VWS V14.01,2013-05-05 02:30:00,
2013-05-04 22:32:00,54.0,53.2,29.89,ENE,59,0.0,3.0,97,0.13,,-RA,1.77,VWS V14.01,2013-05-05 02:32:00,
2013-05-04 22:37:00,54.0,53.2,29.90,NE,51,1.0,7.0,97,0.15,,-RA,1.79,VWS V14.01,2013-05-05 02:37:00,
2013-05-04 22:42:00,54.0,53.2,29.90,NW,309,3.0,7.0,97,0.16,,-RA,1.80,VWS V14.01,2013-05-05 02:42:00,
2013-05-04 22:47:00,54.1,53.3,29.90,South,190,2.0,7.0,97,0.16,,-RA,1.80,VWS V14.01,2013-05-05 02:47:00,
2013-05-04 22:52:00,54.1,53.3,29.90,SE,126,0.0,7.0,97,0.17,,-RA,1.81,VWS V14.01,2013-05-05 02:52:00,
2013-05-04 22:57:00,54.1,53.3,29.90,SSE,159,0.0,7.0,97,0.18,,-RA,1.82,VWS V14.01,2013-05-05 02:57:00,
2013-05-04 23:00:00,54.1,53.3,29.90,SSE,159,0.0,7.0,97,0.18,,CLR,1.82,VWS V14.01,2013-05-05 03:00:00,
2013-05-04 23:02:00,54.1,53.3,29.90,North,9,0.0,3.0,97,0.12,,-RA,1.82,VWS V14.01,2013-05-05 03:02:00,
2013-05-04 23:07:00,54.1,53.3,29.90,West,259,0.0,3.0,97,0.13,,-RA,1.83,VWS V14.01,2013-05-05 03:07:00,
2013-05-04 23:12:00,54.1,53.3,29.90,West,259,0.0,3.0,97,0.15,,-RA,1.85,VWS V14.01,2013-05-05 03:12:00,
2013-05-04 23:17:00,54.2,53.4,29.89,West,259,0.0,3.0,97,0.15,,-RA,1.85,VWS V14.01,2013-05-05 03:17:00,
2013-05-04 23:22:00,54.2,53.4,29.89,North,5,0.0,3.0,97,0.16,,-RA,1.86,VWS V14.01,2013-05-05 03:22:00,
2013-05-04 23:27:00,54.2,53.4,29.88,East,81,0.0,3.0,97,0.18,,-RA,1.88,VWS V14.01,2013-05-05 03:27:00,
2013-05-04 23:30:00,54.2,53.4,29.88,South,180,0.0,3.0,97,0.19,,CLR,1.89,VWS V14.01,2013-05-05 03:30:00,
2013-05-04 23:32:00,54.2,53.4,29.88,South,174,0.0,3.0,97,0.14,,-RA,1.90,VWS V14.01,2013-05-05 03:32:00,
2013-05-04 23:37:00,54.3,53.5,29.88,ESE,110,1.0,3.0,97,0.15,,-RA,1.91,VWS V14.01,2013-05-05 03:37:00,
2013-05-04 23:42:00,54.4,53.6,29.88,WSW,238,0.0,3.0,97,0.15,,-RA,1.91,VWS V14.01,2013-05-05 03:42:00,
2013-05-04 23:47:00,54.4,53.6,29.88,NE,44,1.0,3.0,97,0.15,,-RA,1.91,VWS V14.01,2013-05-05 03:47:00,
2013-05-04 23:52:00,54.5,53.7,29.89,ESE,121,0.0,3.0,97,0.16,,-RA,1.92,VWS V14.01,2013-05-05 03:52:00,
2013-05-04 23:57:00,54.6,53.8,29.89,North,9,0.0,3.0,97,0.16,,-RA,1.92,VWS V14.01,2013-05-05 03:57:00,